Regional Weather Roundup
Issued by NWS

Home | Current Version | Previous Version | Graphics & Text | Print | Product List | Glossary On
Versions: 1 2 3 4 5 6 7 8 9 10 11 12 13 14 15 16 17 18 19 20 21 22 23 24 25 26 27 28 29 30 31 32 33 34 35 36 37 38 39 40 41 42 43 44 45 46 47 48 49 50
000
ASUS43 KIND 302309
RWRIN

WEATHER ROUNDUP FOR INDIANA
NATIONAL WEATHER SERVICE INDIANAPOLIS IN
700 PM EDT SUN APR 30 2017

NOTE: "FAIR" INDICATES FEW OR NO CLOUDS BELOW 12,000 FEET WITH NO
SIGNIFICANT WEATHER AND/OR OBSTRUCTIONS TO VISIBILITY.

* - STATION DOES NOT REPORT WEATHER SUCH AS PRECIPITATION OR FOG.

+ - STATION NOT QUALITY CONTROLLED BY THE NATIONAL WEATHER SERVICE.
    USE DATA WITH CAUTION...ESPECIALLY DEWPOINT AND RELATIVE
    HUMIDITY OBSERVATIONS.

INZ001>003-010>013-019-020-010000-
NORTHWEST INDIANA

CITY           SKY/WX    TMP DP  RH WIND       PRES   REMARKS
GARY /AIRPORT/ FOG       46  46 100 N8        29.76F VSB 3/4
KNOX *+        CLOUDY    63  57  82 E5        29.72S
LA PORTE +     RAIN      53  52  97 N6        29.74F
MICHIGAN CITY+ DRIZZLE   48  48 100 CALM      29.75F
MONTICELLO +   LGT RAIN  65  63  95 SE6       29.71F
RENSSELAER +   RAIN      64  63  94 E6        29.70F
VALPARAISO     LGT RAIN  52  50  93 NE6       29.73F FOG

$$

LMZ046-743>745-010000-
SOUTHERN LAKE MICHIGAN

STATION/POSITION TIME  TEMP    WIND        PRES    WAVE
                       AIR SEA DIR/SP/G            HT
                 (UTC) (F)     (DEG/KT/KT) (MB)    (FT)
BURNS HARBOR     2240   46      40/  9/ 10 1007.8F
MICHIGAN CITY    2240   47      30/  8/  8   N/A
5NW MICH CITY    2300   46 49                N/A     3

$$

INZ004-005-014>016-021>024-010000-
NORTH CENTRAL INDIANA

CITY           SKY/WX    TMP DP  RH WIND       PRES   REMARKS
GOSHEN         CLOUDY    67  62  84 SE8       29.75F
LOGANSPORT +   RAIN      64  63  94 SE7       29.74F
PERU/GRISSOM   LGT RAIN  65  65 100 SE6       29.73F
ROCHESTER +    RAIN      66  64  94 SE5       29.75F
SOUTH BEND     CLOUDY    61  61 100 N3        29.75S
WARSAW +       CLOUDY    64  63  94 S6        29.76S

$$

INZ006>009-017-018-025>027-010000-
NORTHEAST INDIANA

CITY           SKY/WX    TMP DP  RH WIND       PRES   REMARKS
ANGOLA *+      PTSUNNY   66  63  88 S7        29.78S
AUBURN +       CLOUDY    64  63  94 CALM      29.79F
FORT WAYNE     CLOUDY    66  63  90 S5        29.78F
HUNTINGTON +   CLOUDY   N/A N/A N/A SE3       29.76F
KENDALLVILLE + CLOUDY    65  64  94 S7        29.79S

$$

INZ028-029-035-036-043>045-051>053-010000-
WEST CENTRAL INDIANA

CITY           SKY/WX    TMP DP  RH WIND       PRES   REMARKS
CRAWFORDSVL +  LGT RAIN  64  64 100 SE18G25   29.67F
GREENCASTLE +  LGT RAIN  64  64 100 S7        29.71F
LAFAYETTE      LGT RAIN  64  64 100 E9        29.69F
TERRE HAUTE    CLOUDY    69  64  84 S9        29.68F

$$

INZ030>032-037>040-046>048-054>057-064-065-010000-
CENTRAL INDIANA

CITY           SKY/WX    TMP DP  RH WIND       PRES   REMARKS
CP ATTERBURY + RAIN      66  64  94 CALM      29.73F
COLUMBUS       CLOUDY    68  64  88 E6        29.73F
FRANKFORT +    RAIN      67  65  94 SE10      29.74F
GREENWOOD *+   CLOUDY    67  64  90 CALM      29.75S
INDIANAPOLIS   RAIN      65  64  97 SW3       29.75R FOG
-EAGLE CREEK   LGT RAIN  66  64  93 CALM      29.75R FOG
KOKOMO +       LGT RAIN  65  63  93 SE7       29.75F
MARION +       CLOUDY    64  63  94 SE6       29.76F
MT COMFORT *+  CLOUDY    66  63  88 CALM      29.75F
SHELBYVILLE    CLOUDY    69  64  84 E8        29.73F
ZIONSVILLE +   RAIN      64  63  97 S6        29.77R

$$

INZ033-034-041-042-049-050-058-059-010000-
EAST CENTRAL INDIANA

CITY           SKY/WX    TMP DP  RH WIND       PRES   REMARKS
MUNCIE         CLOUDY    68  63  84 SE5       29.76F
RICHMOND +     CLOUDY    68  63  83 E6        29.81F

$$

INZ060-061-067>069-081>083-085>088-010000-
SOUTHWEST INDIANA

CITY           SKY/WX    TMP DP  RH WIND       PRES   REMARKS
EVANSVILLE     CLOUDY    73  66  78 S9G21     29.69S
WASHINGTON +   CLOUDY    69  67  94 SE6       29.67F

$$

INZ062-063-066-070>080-084-089>092-010000-
SOUTH CENTRAL AND SOUTHEAST INDIANA

CITY           SKY/WX    TMP DP  RH WIND       PRES   REMARKS
BLOOMINGTON    CLOUDY    68  65  90 CALM      29.72F
MADISON *+     CLOUDY    79  61  53 S18G28    29.80S
NORTH VERNON + LGT RAIN  77  63  61 SE16G23   29.74F

$$




USA.gov is the U.S. government's official web portal to all federal, state and local government web resources and services.